Showing default

TIANTONG-1 3, 47321

Orbit data source: Space-Track

TIANTONG-1 3, 47321 is a payload satellite owned by CAST (CN) in GEO that was launched on Tue, 19 Jan 2021 UTC via a CHANG ZHENG 3B launch vehicle from the Xichang Space Center, China (XSC). Payload-class satellites include a variety of spacecraft equipped with specific instruments for various scientific and technological missions. These include communications satellites like Starlink; space stations such as the ISS; scientific satellites like the Hubble; Earth observation satellites from companies like Planet Labs, Umbra, and HawkEye 360; GPS; miniature CubeSats for education and research; and military/defense satellites.

Not visible in the next 10 days
Identifier
47321, 2021-003A
Orbit
GEO
Country
Flag of CNCN / PRC
Related business
Manufacturer
CAST
Mission
Operational Civil Communications
Bus & Motor
DFH-4, DFH-4 LAE
Mass
~5,200 kg wet, ~2,500 kg dry
Launch date (UTC)
2021-01-19 (5 years ago)
Launch vehicle
CHANG ZHENG 3B
Launch site
Xichang Space Center, China (XSC)
Object type
Payload
Rocket body
Debris
Shape & HBR
Box + 2 Pan, 15.0 m
Radar Cross Section
34.063 m², Large (>1 m²)

Expand to show TLE details & history
Last TLE update: 23 hours ago

TLE from 23 hours ago
0 TIANTONG-1 3
1 47321U 21003A   26172.54885609 -.00000156  00000-0  00000+0 0  9998
2 47321   1.7523 339.6373 0003142 114.2534  94.9493  1.00269921 20001
Epoch: 2026-06-21T13:10Z
TLE epoch observation values (Epoch: 2026-06-21T13:10:21.166Z)
Latitude
-0.861°
Longitude
81.53626°
Altitude
35,787.891 km
Speed
3.075 km/s
True Right ascension
12h 35m 29s
True Declination
0° 51' 36"
Sunlit
Object was in daylight at epoch
Visualization orbit readout
Latitude
Unknown
Longitude
Unknown
Altitude
Unknown
Speed
Unknown
Apparent Right ascension
Unknown
Apparent Declination
Unknown
Sunlit
N/A
Visualization observer readout
Local Sidereal Time
23:19:20
Azimuth
Unknown
Elevation
Unknown
Doppler factor
Unknown
Orbital elements
Apogee altitude
35,801.435 km
Perigee altitude
35,774.938 km
Semi-major axis
42,166.323 km
Eccentricity
0.00031
Inclination
1.7523°
RAAN
339.6373°
Arg. of periapsis
114.2534°
True anomaly
94.98517°
Mean anomaly
94.9493°
Eccentric anomaly
94.96723°
Mean motion
0.25067 °/min
Orbital period
1,436.18 mins
BSTAR
0
Loading maneuver chart data...
Computing Atmospheric mass density...
Loading historical data...
Loading historical data...
Loading historical data...
Loading historical data...
Loading historical data...
Loading historical data...
Loading historical data...
Other satellites on launch #3 in the year 2021 (2021-01-19 UTC)

Documentation

Showing up to 5 results
|